Seattle Boeing, WA

6:34 PM PDT on March 27, 2017 (GMT -0700)
Boeing Field-King County International

Weather History for KBFI - November, 2013

Change the Weather History Date:

Tuesday, November 19, 2013

  Actual Average Record
Temperature  
Mean Temperature 49 °F -  
Max Temperature 55 °F 49 °F 60 °F (1965)
Min Temperature 41 °F 40 °F 25 °F (1950)
Degree Days  
Heating Degree Days 16    
Moisture  
Dew Point 38 °F    
Average Humidity 70    
Maximum Humidity 86    
Minimum Humidity 40    
Precipitation  
Precipitation 0.11 in - - ()
Sea Level Pressure  
Sea Level Pressure 29.78 in    
Wind  
Wind Speed 8 mph (North)    
Max Wind Speed 14 mph    
Max Gust Speed 25 mph    
Visibility 9 miles    
Events Rain    
Averages and records for this station are not official NWS values.
T = Trace of Precipitation, MM = Missing Value Source: NWS Daily Summary

Daily Weather History Graph

Daily Weather History Graph

Search for Another Location

Airport or City:

Trip Planner

Search our weather history database for the weather conditions in past years. The results will help you decide how hot, cold, wet, or windy it might be!

Date:

Astronomy

Nov. 19, 2013 Rise Set
Actual Time 7:20 AM PST 4:28 PM PST
Civil Twilight 6:46 AM PST 5:02 PM PST
Nautical Twilight 6:08 AM PST 5:40 PM PST
Astronomical Twilight 5:32 AM PST 6:16 PM PST
Moon 6:22 PM PST (11/19) 9:05 AM PST (11/19)
Length of Visible Light 10h 15m
Length of Day
9h 07m
Waning Gibbous, 95% of the Moon is Illuminated
Nov 19
Waning Gibbous
Nov 25
Last Quarter
Dec 2
New
Dec 9
First Quarter
Dec 17
Full

Hourly Weather History & Observations

Time (PST) Temp. Windchill Dew Point Humidity Pressure Visibility Wind Dir Wind Speed Gust Speed Precip Events Conditions
12:32 AM 55.4 °F - 48.2 °F 77% 29.56 in 10.0 mi South 11.5 mph 21.9 mph 0.01 in Rain Light Rain
12:53 AM 55.0 °F - 50.0 °F 83% 29.57 in 10.0 mi South 10.4 mph 23.0 mph 0.01 in Rain Light Rain
1:02 AM 55.4 °F - 50.0 °F 82% 29.57 in 10.0 mi South 12.7 mph 19.6 mph 0.00 in   Overcast
1:53 AM 55.0 °F - 50.0 °F 83% 29.58 in 10.0 mi South 11.5 mph 20.7 mph 0.00 in   Overcast
2:06 AM 55.4 °F - 50.0 °F 82% 29.59 in 10.0 mi South 12.7 mph 19.6 mph N/A   Overcast
2:17 AM 55.4 °F - 50.0 °F 82% 29.59 in 10.0 mi SSW 9.2 mph 21.9 mph N/A   Overcast
2:38 AM 55.4 °F - 50.0 °F 82% 29.59 in 10.0 mi South 13.8 mph 19.6 mph 0.00 in Rain Light Rain
2:53 AM 55.0 °F - 50.0 °F 83% 29.60 in 6.0 mi South 12.7 mph 25.3 mph 0.00 in   Overcast
3:53 AM 50.0 °F - 44.1 °F 80% 29.63 in 10.0 mi NNW 5.8 mph - N/A   Overcast
4:08 AM 50.0 °F - 44.6 °F 82% 29.65 in 10.0 mi North 6.9 mph - N/A   Overcast
4:53 AM 48.0 °F - 43.0 °F 83% 29.69 in 8.0 mi Variable 5.8 mph - 0.01 in Rain Light Rain
5:53 AM 46.9 °F - 43.0 °F 86% 29.71 in 5.0 mi East 3.5 mph - 0.01 in Rain Light Rain
6:53 AM 46.0 °F 43.9 °F 42.1 °F 86% 29.75 in 5.0 mi Variable 4.6 mph - 0.02 in Rain Light Rain
7:53 AM 46.0 °F 43.1 °F 41.0 °F 83% 29.78 in 10.0 mi NE 5.8 mph - 0.02 in   Overcast
8:53 AM 46.0 °F 44.8 °F 39.0 °F 76% 29.80 in 10.0 mi Variable 3.5 mph - 0.00 in Rain Light Rain
9:53 AM 46.0 °F 44.8 °F 37.9 °F 73% 29.82 in 10.0 mi Variable 3.5 mph - 0.01 in   Overcast
10:53 AM 46.0 °F 43.1 °F 39.9 °F 79% 29.84 in 10.0 mi ENE 5.8 mph - 0.00 in Rain Light Rain
11:53 AM 45.0 °F 41.2 °F 37.9 °F 76% 29.86 in 8.0 mi NW 6.9 mph - 0.01 in Rain Light Rain
12:48 PM 44.6 °F 42.2 °F 37.4 °F 76% 29.87 in 10.0 mi North 4.6 mph - 0.02 in Rain Light Rain
12:53 PM 45.0 °F 42.6 °F 37.0 °F 74% 29.87 in 10.0 mi North 4.6 mph - 0.02 in Rain Light Rain
1:53 PM 46.9 °F - 36.0 °F 66% 29.87 in 10.0 mi Calm Calm - 0.00 in   Overcast
2:53 PM 46.9 °F - 36.0 °F 66% 29.87 in 10.0 mi North 3.5 mph - N/A   Overcast
3:53 PM 46.9 °F - 35.1 °F 63% 29.88 in 10.0 mi Calm Calm - N/A   Overcast
4:53 PM 46.0 °F 44.8 °F 32.0 °F 58% 29.89 in 10.0 mi North 3.5 mph - N/A   Overcast
5:53 PM 45.0 °F 43.5 °F 25.0 °F 46% 29.91 in 10.0 mi Variable 3.5 mph - N/A   Overcast
6:53 PM 44.1 °F - 21.9 °F 42% 29.92 in 10.0 mi Calm Calm - N/A   Overcast
7:53 PM 44.1 °F 42.5 °F 21.0 °F 40% 29.94 in 10.0 mi North 3.5 mph - N/A   Mostly Cloudy
8:53 PM 43.0 °F 38.8 °F 19.9 °F 40% 29.97 in 10.0 mi North 6.9 mph - N/A   Overcast
9:53 PM 43.0 °F 37.7 °F 21.0 °F 42% 30.01 in 10.0 mi North 9.2 mph - N/A   Overcast
10:53 PM 43.0 °F 40.3 °F 21.0 °F 42% 30.04 in 10.0 mi North 4.6 mph - N/A   Overcast
11:53 PM 41.0 °F 37.1 °F 21.9 °F 47% 30.08 in 10.0 mi North 5.8 mph - N/A   Scattered Clouds